Regional Weather Roundup
Issued by NWS Memphis, TN

Home | Current Version | Previous Version | Text Only | Print | Product List | Glossary On
Versions: 1 2 3 4 5 6 7 8 9 10 11 12 13 14 15 16 17 18 19 20 21 22 23 24 25 26 27 28 29 30 31 32 33 34 35 36 37 38 39 40 41 42 43 44 45 46 47 48 49 50
000
ASUS44 KMEG 290610
RWRMEG
MEMPHIS CWA HOURLY WEATHER ROUNDUP
NATIONAL WEATHER SERVICE MEMPHIS TN
100 AM CDT FRI JUL 29 2016

...WEST TENNESSEE...

CITY           SKY/WX    TMP DP  RH WIND       PRES   REMARKS
MEMPHIS INTL   CLOUDY    78  73  84 VRB7      29.97S
6HR MIN TEMP:  78; 6HR MAX TEMP:  84;

NWS MEMPHIS      N/A     78 N/A N/A MISG        N/A
JACKSON        PTCLDY    77  76  96 SW9       29.97R
6HR MIN TEMP:  77; 6HR MAX TEMP:  84;

LEXINGTON      CLOUDY    75  73  94 SW7       29.96R
DYERSBURG      CLOUDY   N/A N/A N/A MISG        N/A
UNION CITY     MOCLDY    73  72  94 CALM      29.94R
PARIS          PTCLDY    73  72  94 CALM      29.96R


...EASTERN ARKANSAS...

CITY           SKY/WX    TMP DP  RH WIND       PRES   REMARKS
JONESBORO      CLOUDY    78  76  93 S9        29.94F
6HR MIN TEMP:  74; 6HR MAX TEMP:  87; 6HR PCP:  0.50;

WEST MEMPHIS   MOCLDY    75  73  93 SW3       29.95S
6HR MIN TEMP:  75; 6HR MAX TEMP:  82;

BATESVILLE     PTCLDY    73  70  88 CALM      29.95F
6HR MIN TEMP:  73; 6HR MAX TEMP:  82;

NEWPORT        CLOUDY    77  77 100 S9        29.95F
6HR MIN TEMP:  75; 6HR MAX TEMP:  84; 6HR PCP: TRACE;

WALNUT RIDGE   CLOUDY    75  70  83 SE7       29.92F
6HR MIN TEMP:  73; 6HR MAX TEMP:  88; 6HR PCP:  0.03;

BLYTHEVILLE    CLOUDY    75  71  87 SW8       29.95F
6HR MIN TEMP:  75; 6HR MAX TEMP:  84; 6HR PCP: TRACE;

SEARCY         PTCLDY    76  75  97 S5        29.96F
6HR MIN TEMP:  75; 6HR MAX TEMP:  78;

STUTTGART      CLOUDY    75  70  83 SW9       29.96F
6HR MIN TEMP:  75; 6HR MAX TEMP:  82;

PINE BLUFF     MOCLDY    74  72  93 SW5       29.98S
6HR MIN TEMP:  74; 6HR MAX TEMP:  79;

MONTICELLO     PTCLDY    76  72  87 W6        29.99R
6HR MIN TEMP:  75; 6HR MAX TEMP:  78;



...NORTH MISSISSIPPI...

CITY           SKY/WX    TMP DP  RH WIND       PRES   REMARKS
TUPELO         PTCLDY    76  72  87 VRB5      29.98F
6HR MIN TEMP:  76; 6HR MAX TEMP:  83;

OXFORD         CLOUDY    73  72  94 SW6       30.01R
BATESVILLE     CLOUDY    75  73  92 S6        29.99R
6HR MIN TEMP:  75; 6HR MAX TEMP:  81;

TUNICA         PTCLDY    72  72 100 S5        29.98S
CLARKSDALE     MOCLDY    75  75 100 S5        29.98S
CORINTH        CLOUDY    75  73  94 SW6       29.97R
GREENWOOD      CLOUDY    74  71  91 S5        29.99S
6HR MIN TEMP:  73; 6HR MAX TEMP:  78; 6HR PCP: TRACE;

COLUMBUS       PTCLDY    73  73 100 W1        29.99S
6HR MIN TEMP:  73; 6HR MAX TEMP:  82;

GOLDEN TRIANGL PTCLDY    77  68  73 CALM      29.99S
6HR MIN TEMP:  73; 6HR MAX TEMP:  84;



...SOUTHEAST MISSOURI...

CITY           SKY/WX    TMP DP  RH WIND       PRES   REMARKS
KENNETT        CLOUDY    75  73  94 S6        29.92S
WEST PLAINS    CLEAR     69  66  90 W5        29.99S
6HR MIN TEMP:  69; 6HR MAX TEMP:  85; 6HR PCP:  0.12;

POPLAR BLUFF   MOCLDY    73  71  93 W3        29.93S
6HR MIN TEMP:  73; 6HR MAX TEMP:  78; 6HR PCP: TRACE;

CAPE GIRARDEAU PTCLDY    73  71  93 S8        29.92S
6HR MIN TEMP:  72; 6HR MAX TEMP:  79; 6HR PCP:  0.04;



...NORTHWEST ALABAMA...

CITY           SKY/WX    TMP DP  RH WIND       PRES   REMARKS
MUSCLE SHOALS  CLEAR     73  71  93 S3        30.00S
6HR MIN TEMP:  73; 6HR MAX TEMP:  77; 6HR PCP:  0.01;



...MIDDLE TENNESSEE...

CITY           SKY/WX    TMP DP  RH WIND       PRES   REMARKS
NASHVILLE      CLOUDY    77  73  87 SW5       29.96S
6HR MIN TEMP:  77; 6HR MAX TEMP:  84;

CLARKSVILLE    TSTM      77  73  87 SW8       29.93S FOG
6HR MIN TEMP:  76; 6HR MAX TEMP:  84; 6HR PCP:  0.47;

COLUMBIA       CLOUDY   N/A N/A N/A SW8       29.97S


...WESTERN KENTUCKY...

CITY           SKY/WX    TMP DP  RH WIND       PRES   REMARKS
PADUCAH        CLOUDY    75  71  87 CALM      29.93R
6HR MIN TEMP:  74; 6HR MAX TEMP:  86;



...CENTRAL ARKANSAS...

CITY           SKY/WX    TMP DP  RH WIND       PRES   REMARKS
LITTLE ROCK    PTCLDY    77  72  84 S7        29.96S
6HR MIN TEMP:  77; 6HR MAX TEMP:  85;



SKY/WX REPORTED AS FAIR MEANS FEW OR NO CLOUDS BELOW
12 THOUSAND FEET.





USA.gov is the U.S. government's official web portal to all federal, state and local government web resources and services.